Location: Misciano
(43.5000°N, 11.9500°E)
Time: 10:00:35
(UTC+00:00)

Cosmos 1459 Rocket - Pass Details

Date: 13 August 2020
Orbit: 937 x 1000 km, 83.0° (Epoch: 20 September)

Event Time Altitude Azimuth Distance (km) Brightness Sun altitude
Exits shadow 21:08:09 49° 186° (S) 1,256 4.2 -25.1°
Maximum altitude 21:10:02 90° 352° (N) 999 3.9 -25.3°
Drops below altitude 10° 21:16:27 10° 8° (N) 2,777 7.0 -26.0°
Sets 21:19:00 0° 8° (N) 3,733 7.8 -26.2°
